sat.trackr.live / text

‹ back to catalog

STARLINK-34247

NORAD 65083 · 2025-167F

PAYLOAD ACTIVE UNKNOWN

§ Identity

Operator
Country
US
Launch date
2025-08-04
Launch site
AFETR
Launch vehicle
Mass (kg)
RCS (m²)

Purposes: comms

External: N2YO · Heavens-Above · Gunter

§ Orbital elements

Epoch: 2026-09-19T13:21:46.382112Z

Period
93.85 min
Inclination
53.1596°
Eccentricity
0.0000771
Mean motion
15.34408973 rev/d
Perigee alt
462.1 km
Apogee alt
463.2 km
Semi-major
6,840.8 km
B*
4.5169e-4
RAAN
201.8246°
Arg perigee
105.6830°
Mean anomaly
254.4258°
Rev number
6,322

§ Raw data

STARLINK-342471 65083U 25167F   26262.55678683  .00014920  00000+0  45169-3 0  99922 65083  53.1596 201.8246 0000771 105.6830 254.4258 15.34408973 63221

JSON: /api/v1/satellites/65083 · /tle

For live sub-satellite position, see the globe view (requires WebGL).

§ Visibility from observer

Set your observer location to see the next 7 days of passes ≥ 10°. The values pass through the URL so the page stays shareable.

No JS? Fill the form by hand. The geolocation button needs JavaScript.